OSCAR 7 (AO-7) 1 07530U 74089B 26121.80806832 -.00000040 00000+0 42536-4 0 9998 2 07530 101.9925 134.5679 0012012 218.2464 327.7219 12.53697377354702 PHASE 3B (AO-10) 1 14129U 83058B 26118.35311208 -.00000137 00000+0 00000+0 0 9992 2 14129 25.8946 227.8674 6028461 101.9264 327.7175 2.05873308294462 UOSAT 2 (UO-11) 1 14781U 84021B 26121.90663003 .00001423 00000+0 15077-3 0 9997 2 14781 97.8026 88.0123 0007235 349.3901 10.7163 14.90671975250232 LUSAT (LO-19) 1 20442U 90005G 26121.78557590 .00000145 00000+0 68392-4 0 9995 2 20442 98.8879 142.3062 0011266 347.9583 12.1330 14.34108427895743 EYESAT A (AO-27) 1 22825U 93061C 26121.64011267 .00000119 00000+0 62282-4 0 9991 2 22825 98.6899 189.0650 0007480 231.9380 128.1128 14.30929389700349 ITAMSAT (IO-26) 1 22826U 93061D 26121.91299157 .00000107 00000+0 57095-4 0 9991 2 22826 98.6845 189.2506 0008268 213.2212 146.8453 14.31355035700693 RADIO ROSTO (RS15) 1 23439U 94085A 26121.90897042 -.00000036 00000+0 17623-3 0 9999 2 23439 64.8209 18.0614 0154638 12.3106 348.1530 11.27583774290686 JAS-2 (FO-29) 1 24278U 96046B 26121.87906339 .00000004 00000+0 40781-4 0 9992 2 24278 98.5293 337.0804 0349230 216.4775 141.2112 13.53272104466904 TECHSAT 1B (GO-32) 1 25397U 98043D 26121.91459249 .00000064 00000+0 47909-4 0 9997 2 25397 99.0062 113.5096 0001545 33.8269 326.3007 14.24419145444744 ISS (ZARYA) 1 25544U 98067A 26121.81277072 .00006771 00000+0 13067-3 0 9996 2 25544 51.6311 169.6452 0007226 12.7206 347.3964 15.49051775564563 PCSAT (NO-44) 1 26931U 01043C 26121.92136834 .00000132 00000+0 80358-4 0 9990 2 26931 67.0525 3.9361 0006429 263.8676 96.1693 14.31937792283822 SAUDISAT 1C (SO-50) 1 27607U 02058C 26121.76023789 .00001348 00000+0 17601-3 0 9994 2 27607 64.5517 272.6163 0075624 270.9121 88.3321 14.82944454257571 CUTE-1 (CO-55) 1 27844U 03031E 26121.95402279 .00000304 00000+0 15057-3 0 9999 2 27844 98.6752 131.0926 0008818 326.3478 33.7140 14.24306450185094 CUBESAT XI-IV (CO-57) 1 27848U 03031J 26121.00566327 .00000259 00000+0 13282-3 0 9991 2 27848 98.6788 129.9070 0009102 348.5967 11.5004 14.23594934184669 MOZHAETS 4 (RS22) 1 27939U 03042A 26121.98322016 .00001609 00000+0 25628-3 0 9993 2 27939 98.3461 305.0402 0012438 58.4485 96.1654 14.73386284208747 CUBESAT XI-V 1 28895U 05043F 26121.85735265 .00001476 00000+0 24048-3 0 9995 2 28895 98.2932 276.5239 0013862 357.9727 2.1421 14.72507973 94931 CUTE-1.7+APD II (CO-65) 1 32785U 08021C 26121.90443943 .00005970 00000+0 38135-3 0 9997 2 32785 97.8252 102.3843 0008966 175.5552 184.5757 15.09008623978218 SEEDS II (CO-66) 1 32791U 08021J 26121.88951652 .00020016 00000+0 66633-3 0 9994 2 32791 97.7523 117.6381 0005103 105.4205 254.7600 15.31165393980200 YUBILEINY (RS30) 1 32953U 08025A 26121.74308865 .00000002 00000+0 -58333-4 0 9998 2 32953 82.5084 24.3274 0020586 53.7260 306.5718 12.43177606813927 KKS-1 (KISEKI) 1 33499U 09002H 26121.83789304 .00001466 00000+0 18718-3 0 9997 2 33499 98.1194 43.5503 0009342 81.8379 278.3893 14.83001702929327 SWISSCUBE 1 35932U 09051B 26121.64333868 .00001185 00000+0 24400-3 0 9997 2 35932 98.4065 28.7182 0007040 9.1233 351.0094 14.62389677882354 BEESAT-1 1 35933U 09051C 26121.69724280 .00000989 00000+0 20863-3 0 9995 2 35933 98.3993 28.5051 0005828 24.7278 335.4201 14.61642753882397 ITUPSAT1 1 35935U 09051E 26121.64753889 .00000899 00000+0 19590-3 0 9994 2 35935 98.4079 27.6954 0008206 31.6582 328.5109 14.60368784881943 XIWANG-1 (HOPE-1) 1 36122U 09072B 26121.80842301 -.00000369 00000+0 -84973-3 0 9993 2 36122 100.3995 76.3887 0007433 345.0694 15.0198 13.16436911786909 O/OREOS (USA 219) 1 37224U 10062C 26121.58202921 .00002316 00000+0 22519-3 0 9991 2 37224 71.9708 185.8901 0013761 163.0679 197.0954 14.93554734109688 JUGNU 1 37839U 11058B 26121.58420735 .00000474 00000+0 10776-3 0 9999 2 37839 19.9603 231.5562 0018464 282.2025 198.4141 14.13762761752424 SRMSAT 1 37841U 11058D 26121.91213606 .00000424 00000+0 86236-4 0 9996 2 37841 19.9735 339.5644 0011763 55.2079 333.0597 14.11564882751271 STRAND-1 1 39090U 13009E 26121.75710025 .00000306 00000+0 11721-3 0 9996 2 39090 98.3914 303.1367 0008917 18.0024 342.1477 14.37135365690393 ZACUBE-1 (TSHEPISOSAT) 1 39417U 13066B 26121.80967616 .00006214 00000+0 48428-3 0 9996 2 39417 97.8127 83.8968 0043488 48.7116 311.7839 15.00811372673776 GOMX-1 1 39430U 13066Q 26121.81077571 .00002045 00000+0 31383-3 0 9994 2 39430 97.6514 325.1964 0127747 226.0567 133.0044 14.69281691663107 CUBEBUG-2 (LO-74) 1 39440U 13066AA 26121.83674549 .00003148 00000+0 29572-3 0 9997 2 39440 97.8881 70.6420 0057831 179.6191 180.5082 14.93428707670079 FUNCUBE-1 (AO-73) 1 39444U 13066AE 26121.90981345 .00010024 00000+0 63043-3 0 9996 2 39444 97.8255 92.4199 0036820 4.7123 355.4444 15.08859819672684 UWE-3 1 39446U 13066AG 26121.82221283 .00005106 00000+0 44139-3 0 9997 2 39446 97.8675 77.6089 0051168 113.4589 247.2023 14.96638702670648 UNISAT-6 1 40012U 14033C 26121.87135706 .00003168 00000+0 34531-3 0 9993 2 40012 97.7820 275.4225 0044458 219.7303 140.0655 14.87971071639272 DUCHIFAT-1 1 40021U 14033M 26121.65358600 .00083027 00000+0 11503-2 0 9994 2 40021 98.0523 174.5966 0004783 216.6858 143.4068 15.56790484648498 QB50P1 1 40025U 14033R 26121.74061128 .00010538 00000+0 52812-3 0 9990 2 40025 98.0980 129.6547 0009628 35.7721 324.4154 15.17530298645987 LILACSAT-2 1 40908U 15049K 26121.93881767 .00018725 00000+0 33599-3 0 9995 2 40908 97.4710 157.0622 0008571 70.2765 289.9410 15.49921510588586 FOX-1A (AO-85) 1 40967U 15058D 26121.26169140 .00004716 00000+0 42437-3 0 9996 2 40967 64.7761 64.7792 0128635 74.9744 286.5563 14.90682726106573 CAS-2T & KS-1Q 1 41847U 16066G 26121.83332907 .00000667 00000+0 10397-3 0 9991 2 41847 98.3829 198.0928 0340903 270.2163 85.9975 14.44575023498102 RADFXSAT (FOX-1B) 1 43017U 17073E 26121.89134052 .00009897 00000+0 43565-3 0 9995 2 43017 97.4771 350.0723 0154279 128.0253 233.5021 15.11871502458397 DIWATA-2B 1 43678U 18084H 26121.95164022 .00004018 00000+0 32593-3 0 9997 2 43678 98.1069 316.1889 0012807 330.0469 30.0020 15.00224650409285 ES'HAIL 2 1 43700U 18090A 26120.49191795 .00000147 00000+0 00000+0 0 9998 2 43700 0.0137 266.9736 0001700 165.7205 348.6817 1.00277015 27199 FOX-1CLIFF (AO-95) 1 43770U 18099N 26121.72321077 .00014357 00000+0 56496-3 0 9991 2 43770 97.4418 182.1700 0010024 144.9879 215.2021 15.25699086406132 ITASAT 1 43786U 18099AE 26121.63786283 .00008606 00000+0 41991-3 0 9996 2 43786 97.4064 174.0905 0013757 149.6187 210.5848 15.18450135405847 JY1SAT (JO-97) 1 43803U 18099AX 26121.42128916 .00024154 00000+0 77797-3 0 9995 2 43803 97.4161 184.1404 0007196 84.4383 275.7679 15.32171186406461 UWE-4 1 43880U 18111E 26121.76651345 .00036856 00000+0 82481-3 0 9997 2 43880 97.5865 48.1262 0010382 122.7935 237.4314 15.43326843403618 TIANYAN 01 1 44881U 19093C 26121.93430771 .00000277 00000+0 37391-4 0 9995 2 44881 97.7548 195.2925 0012260 236.4467 123.5579 14.86440408344544 RS-44 & BREEZE-KM R/B 1 44909U 19096E 26121.72177340 .00000019 00000+0 38948-4 0 9999 2 44909 82.5257 10.5836 0216410 252.9717 104.7572 12.79747989296407 SALSAT 1 46495U 20068K 26121.95553893 .00008889 00000+0 31684-3 0 9990 2 46495 97.8856 122.2320 0011686 103.2556 256.9987 15.29110637308292 XW-3 (CAS-9) 1 50466U 21131B 26121.95951410 .00000392 00000+0 13491-3 0 9999 2 50466 98.4958 214.6062 0003150 224.6184 135.4752 14.41311552228458 GREENCUBE (IO-117) 1 53109U 22080E 26121.49337740 -.00000003 00000+0 00000+0 0 9991 2 53109 70.1455 314.4923 0008861 300.4355 59.5429 6.42583336 89068 UMKA 1 (RS40S) 1 57172U 23091G 26121.89654796 .00006365 00000+0 29573-3 0 9991 2 57172 97.5084 180.7822 0011198 281.8340 78.1639 15.20292907156970 CUBESX-HSE 3 (RS42S) 1 57178U 23091N 26121.95310100 .00013727 00000+0 47354-3 0 9999 2 57178 97.5121 186.9923 0009548 251.8464 108.1736 15.30059063157358 MONITOR-3 (RS58S) 1 57180U 23091Q 26121.94482799 .00010890 00000+0 41397-3 0 9994 2 57180 97.5114 185.0783 0010321 259.8973 100.1102 15.26919546157233 MONITOR-4 (RS57S) 1 57182U 23091S 26121.92677287 .00011354 00000+0 43025-3 0 9998 2 57182 97.5108 185.0282 0010302 260.4893 99.5182 15.27015273157234 MONITOR-2 (RS39S) 1 57184U 23091U 26121.92720457 .00005111 00000+0 25099-3 0 9993 2 57184 97.5107 180.5158 0009618 273.4533 86.5601 15.18481306156932 SVYATOBOR 1 (RS60S) 1 57187U 23091X 26121.90205837 .00009465 00000+0 37245-3 0 9996 2 57187 97.5121 185.4847 0008069 250.3908 109.6459 15.25829617157252 VIZARD-METEO (RS38S) 1 57189U 23091Z 26121.93652339 .00017974 00000+0 53812-3 0 9996 2 57189 97.5117 190.5434 0006611 224.4114 135.6600 15.34569361157591 POLYTECH-UNIVERSE 3 (R*) 1 57191U 23091AB 26121.89455991 .00005507 00000+0 26831-3 0 9999 2 57191 97.5083 179.9884 0013981 292.4198 67.5555 15.18679099156921 UTMN 2 (RS27S) 1 57203U 23091AP 26121.93112359 .00014423 00000+0 48459-3 0 9993 2 57203 97.5115 188.5467 0007084 234.7375 125.3204 15.30923464157463 KUZGTU 1 (RS47S) 1 57217U 23091AV 26121.90497062 .00012779 00000+0 45825-3 0 9998 2 57217 97.5095 185.9456 0009645 256.1922 103.8244 15.28809885157300 SONATE-2 1 59112U 24043Q 26121.67207617 .00044572 00000+0 65251-3 0 9992 2 59112 97.5482 269.3545 0006480 18.4812 341.6676 15.55442208120654 MESAT1 1 60209U 24125G 26121.55861949 .00059208 00000+0 76879-3 0 9993 2 60209 97.2357 338.1325 0011077 39.0286 321.1768 15.58565618102293 OOV-CUBE (TUBSAT-30) 1 60240U 24128F 26121.87367303 .00002601 00000+0 20535-3 0 9994 2 60240 61.9969 27.0368 0049997 123.5966 236.9912 15.02539701 99159 COLIBRI-S (RS67S) 1 61746U 24199M 26121.93413669 .00023245 00000+0 47961-3 0 9997 2 61746 97.3061 355.4197 0010748 90.6005 269.6476 15.45815491130261 HORS 3 (RS81S) 1 61753U 24199U 26121.90061920 .00035063 00000+0 58383-3 0 9992 2 61753 97.3045 356.9162 0009209 94.8783 265.3521 15.51901401130378 HORS 4 (RS82S) 1 61754U 24199V 26121.92097810 .00042584 00000+0 61889-3 0 9993 2 61754 97.2998 357.8758 0008326 91.2665 268.9543 15.55632703130446 HORIZON (RS59S) 1 61757U 24199Y 26121.92622756 .00550900 12824-3 13502-2 0 9994 2 61757 97.2881 3.9019 0004568 133.4958 226.6699 15.96109159130832 ARCTICSAT 1 (RS74S) 1 61762U 24199AD 26121.89897940 .00217179 00000+0 11333-2 0 9992 2 61762 97.2948 2.7390 0005524 93.0036 267.1864 15.80274796130750 SIT-2086 1 61764U 24199AF 26121.88788852 .00024457 00000+0 43310-3 0 9990 2 61764 97.3018 357.5323 0008653 81.3043 278.9188 15.50237778127258 HYPERVIEW 1G (RS66S) 1 61772U 24199AP 26121.92941738 .00091094 00000+0 88014-3 0 9999 2 61772 97.2967 359.6693 0008967 92.0336 268.1952 15.66115359127419 ALTAIR (RS65S) 1 61779U 24199AW 26121.94028305 .00012726 00000+0 36220-3 0 9991 2 61779 97.3090 351.6122 0014789 110.3214 249.9621 15.36144426130015 ASRTU-1 (AO-123) 1 61781U 24199AY 26121.89059625 .00008624 00000+0 25540-3 0 9992 2 61781 97.3063 350.9873 0015775 112.7116 247.5797 15.34991302126829 TUSUR GO (RS78S) 1 61782U 24199AZ 26121.59516264 .01242777 91146-3 17620-2 0 9991 2 61782 97.2849 2.7465 0004921 168.6139 191.5255 16.05855152127599 SAMSAT-IONOSPHERE (RS7*) 1 61784U 24199BB 26121.93700539 .00044107 00000+0 68439-3 0 9997 2 61784 97.3019 356.8604 0011498 94.7094 265.5473 15.53791510130378 RTU MIREA 1 (RS51S) 1 61785U 24199BC 26121.92193465 .00051013 00000+0 71847-3 0 9992 2 61785 97.3011 357.4708 0011330 92.6359 267.6193 15.56412712127262 TEVEL2-4 1 63213U 25052D 26121.66510781 .00023292 00000+0 73184-3 0 9998 2 63213 97.3958 18.0272 0000260 286.1694 73.9519 15.32995891 62983 TEVEL2-5 1 63214U 25052E 26121.68074363 .00022075 00000+0 69709-3 0 9998 2 63214 97.3955 18.0031 0000337 285.9180 74.2025 15.32846989 62985 TEVEL2-6 1 63215U 25052F 26121.69194572 .00021960 00000+0 69430-3 0 9998 2 63215 97.3958 17.9994 0000424 288.1650 71.9546 15.32809319 62987 TEVEL2-1 1 63217U 25052H 26121.64043745 .00021721 00000+0 69717-3 0 9993 2 63217 97.3934 17.6251 0000907 340.0699 20.0507 15.32327829 62964 TEVEL2-3 1 63218U 25052J 26121.96310385 .00018986 00000+0 60884-3 0 9991 2 63218 97.3935 17.9639 0000882 337.6935 22.4268 15.32385252 63017 TEVEL2-2 1 63219U 25052K 26121.96746855 .00019275 00000+0 61881-3 0 9997 2 63219 97.3934 17.9531 0000898 336.0550 24.0650 15.32344787 63012 TEVEL2-9 1 63237U 25052AD 26121.95259268 .00017645 00000+0 60013-3 0 9998 2 63237 97.3995 17.4086 0004608 321.3483 38.7427 15.30493001 62952 TEVEL2-7 1 63238U 25052AE 26121.65823257 .00020356 00000+0 69742-3 0 9992 2 63238 97.4000 17.0496 0004747 322.6418 37.4492 15.30224938 62902 TEVEL2-8 1 63239U 25052AF 26121.66596023 .00020523 00000+0 70349-3 0 9993 2 63239 97.3994 17.0358 0004740 324.0702 36.0219 15.30207179 62906 HADES-ICM 1 63492U 25052BN 26121.69252362 .00520626 00000+0 24700-2 0 9990 2 63492 97.3817 24.8740 0005023 154.3976 205.7542 15.81594398 63446 INNOSAT 16 (RS92S7) 1 64878U 25155C 26121.94555831 .00007242 00000+0 29317-3 0 9992 2 64878 97.4537 89.2492 0010307 0.1814 359.9425 15.24942858 73622 GEOSCAN 6 (RS92S6) 1 64879U 25155D 26121.93335349 .00012452 00000+0 44076-3 0 9990 2 64879 97.4531 90.3481 0007351 358.2367 1.8846 15.29258831 73696 GEOSCAN 1 (RS92S1) 1 64880U 25155E 26121.95265791 .00012757 00000+0 44433-3 0 9992 2 64880 97.4528 90.4779 0007253 358.9319 1.1905 15.29780676 73708 239ALFEROV (RS61S) 1 64881U 25155F 26121.91850279 .00017515 00000+0 57403-3 0 9998 2 64881 97.4531 90.8598 0006763 0.1541 359.9701 15.31683549 73728 GEOSCAN 2 (RS92S2) 1 64890U 25155Q 26121.95469015 .00012718 00000+0 43916-3 0 9990 2 64890 97.4527 90.6138 0006082 346.3413 13.7662 15.30069335 73718 GEOSCAN 5 (RS92S5) 1 64891U 25155R 26121.91717387 .00017234 00000+0 55928-3 0 9999 2 64891 97.4523 90.9783 0005991 10.4436 349.6929 15.32009051 73736 GEOSCAN 4 (RS92S4) 1 64892U 25155S 26121.90557575 .00017242 00000+0 55733-3 0 9993 2 64892 97.4526 91.0028 0006025 11.0830 349.0543 15.32136110 73731 GEOSCAN 3 (RS92S3) 1 64893U 25155T 26121.89633397 .00019569 00000+0 59948-3 0 9995 2 64893 97.4515 91.3006 0005771 14.7198 345.4211 15.33825608 73755 INNOSAT 3 (RS92S0) 1 64894U 25155U 26121.91923796 .00040129 00000+0 98175-3 0 9995 2 64894 97.4475 92.4320 0004927 26.1515 333.9979 15.40669245 73837 KNACKSAT-2 1 67683U 98067XZ 26121.39473065 .00052169 00000+0 73373-3 0 9997 2 67683 51.6293 169.1056 0012649 24.1266 336.0316 15.56061539 12982